#timestamp,LO_Frequency,Hit 
1503406815.2,286046995.2,P
1503406835.1,286046999.0,N
1503406836.0,286046999.0,N
1503406855.8,286046998.2,N
1503406875.6,286047000.9,N
1503406895.5,286046997.1,N
1503406915.3,286046997.3,N
1503406935.1,286046999.2,N
1503406955.8,286046999.3,N
1503406975.7,286046997.2,N
1503406995.5,286046997.9,N
1503407015.3,286046997.5,N
1503407035.2,286046997.8,N
1503407055.9,286046997.8,N
1503407075.7,286046997.8,N
1503407095.6,286046994.9,P
1503407115.4,286046999.6,N
1503407135.2,286046996.9,N
1503407155.1,286046997.5,N
1503407156.0,286046997.5,N
1503407175.8,286046997.8,N
1503407195.6,286046995.8,P
1503407215.5,286046996.8,P
1503407235.3,286046999.6,N
1503407255.1,286046996.9,N
1503407275.9,286046997.0,N
1503407295.7,286046997.0,N
1503407315.5,286047000.3,N
1503407335.4,286047000.3,N
1503407355.2,286047002.3,N
1503407375.0,286046999.6,N
1503407375.9,286046999.6,N
1503407395.8,286046999.5,N
1503407415.6,286046996.8,N
1503407435.4,286046995.7,N
1503407455.2,286046995.5,N
1503407475.1,286046996.2,N
1503407476.0,286046996.2,N
1503407495.8,286046995.1,N
1503407515.6,286046995.6,N
1503407535.5,286046995.2,N
1503407555.3,286046995.2,N
1503407575.1,286046996.4,N
1503407595.9,286046996.1,N
1503407615.7,286046996.4,N
1503407635.5,286046992.0,P
1503407655.4,286046995.4,N
1503407675.2,286046995.3,N
1503407695.0,286046995.0,N
1503407695.9,286046995.0,N
1503407715.8,286046995.2,P
1503407735.6,286046998.4,P
1503407755.4,286046998.6,N
1503407775.3,286046999.0,N
1503407795.1,286046999.4,N
1503407815.8,286046999.2,N
1503407835.7,286046999.3,N
1503407855.5,286046996.6,N
1503407875.3,286046999.6,N
1503407895.2,286046996.6,N
1503407915.9,286046997.8,N
1503407935.7,286046995.4,N
1503407955.6,286046995.6,N
1503407975.4,286046995.6,N
1503407995.2,286046996.1,N
1503408015.1,286046995.2,N
1503408016.0,286046995.2,N
1503408035.8,286046995.5,N
1503408055.6,286046995.4,N
1503408075.4,286046997.3,N
1503408095.3,286046997.5,N
1503408115.1,286046997.2,N
1503408135.8,286046995.9,N
1503408155.7,286046996.1,N
1503408175.5,286046993.7,P
1503408195.3,286046997.7,N
1503408215.2,286046997.3,N
1503408235.0,286046997.2,N
1503408235.9,286046997.2,N
1503408255.7,286046997.8,N
1503408275.6,286046998.4,N
1503408295.4,286046998.2,N
1503408315.2,286046999.9,N
1503408335.1,286047002.7,N
1503408336.0,286047002.7,N
1503408355.8,286047000.6,N
1503408375.6,286047001.1,N
1503408395.5,286046996.6,N
1503408415.3,286046996.8,N
1503408435.1,286046995.4,N
1503408455.8,286046997.4,N
1503408475.7,286046997.1,N
1503408495.5,286046998.0,N
1503408515.3,286046997.9,N
1503408535.2,286046995.2,N
1503408555.0,286046995.2,N
1503408555.9,286046995.2,N
1503408575.7,286046993.4,N
1503408595.6,286046994.5,N
1503408615.4,286046991.7,P
1503408635.2,286046995.2,N
1503408655.1,286046994.9,N
1503408656.0,286046994.9,N
1503408675.8,286046999.4,N
1503408695.6,286046999.9,N
1503408715.5,286047000.1,N
1503408735.3,286047000.1,N
1503408755.1,286046998.8,N
1503408775.9,286046996.9,N
1503408795.7,286046998.4,N
1503408815.5,286047000.0,N
1503408835.4,286046996.5,N
1503408855.2,286046993.4,N
1503408875.0,286046993.5,N
1503408875.9,286046993.5,N
1503408895.8,286046994.6,N
1503408915.6,286046994.7,N
1503408935.4,286046996.0,N
1503408955.2,286047001.0,N
1503408975.1,286047002.3,N
1503408976.0,286047002.3,N
1503408995.8,286047000.4,N
1503409015.6,286047001.8,N
1503409035.5,286047007.5,N
1503409055.3,286047011.9,P
1503409075.1,286047019.8,N
1503409095.9,286047026.4,N
1503409115.7,286047029.7,N
1503409135.5,286047031.5,N
1503409155.4,286047034.4,N
1503409175.2,286047034.7,N
1503409195.0,286047032.7,N
1503409195.9,286047032.7,N
1503409215.8,286047031.1,N
1503409235.6,286047031.3,N
1503409255.4,286047032.6,P
1503409275.3,286047008.0,N
1503409295.1,286047007.9,N
1503409315.8,286047010.9,N
1503409335.7,286047016.8,N
1503409355.5,286047012.8,N
1503409375.3,286047016.9,N
1503409395.2,286047020.4,N
1503409415.9,286047021.3,N
1503409435.7,286047020.2,N
1503409455.5,286047018.8,N
1503409475.4,286047012.7,N
1503409495.2,286047010.3,N
1503409515.0,286047006.4,N
1503409515.9,286047006.4,N
1503409535.8,286047007.1,N
1503409555.6,286047005.1,N
1503409575.4,286047006.6,N
1503409595.3,286047021.0,N
1503409615.1,286047027.9,P
1503409635.8,286047024.4,P
1503409655.7,286047033.1,P
1503409675.5,286047030.7,P
1503409695.3,286047004.2,N
1503409715.2,286046996.9,N
1503409735.0,286046990.4,N
1503409735.9,286046990.4,N
1503409755.7,286046986.1,N
1503409775.6,286046984.0,N
1503409795.4,286046983.2,N
1503409815.2,286046981.4,N
1503409835.1,286046977.9,N
1503409836.0,286046977.9,N
1503409855.8,286046975.9,N
1503409875.6,286046976.5,N
1503409895.5,286046980.2,N
1503409915.3,286046981.5,N
1503409935.1,286046985.1,N
1503409955.9,286046989.7,N
1503409975.7,286046986.6,N
1503409995.5,286046983.9,N
1503410015.3,286046986.0,N
1503410035.2,286046985.8,N
1503410055.0,286046986.8,N
1503410055.9,286046986.8,N
1503410075.7,286046988.4,N
1503410095.6,286046990.0,N
1503410115.4,286046989.0,N
1503410135.2,286046987.6,N
1503410155.1,286046989.3,N
1503410156.0,286046989.3,N
1503410175.8,286046990.5,N
1503410195.6,286046986.6,N
1503410215.5,286046984.9,N
1503410235.3,286046983.1,P
1503410255.1,286046993.3,P
1503410275.9,286046994.9,N
1503410295.7,286046994.9,N
1503410315.5,286046993.1,N
1503410335.4,286046987.0,N
1503410355.2,286046989.6,N
1503410375.0,286046987.7,N
1503410375.9,286046987.7,P
1503410395.8,286046995.3,P
